This is the latest recevied weather packets stored in our database for station/object DK8RG-15. If no packets are shown the sender has not sent any weather packets the latest 10 day(s).
| Time | Temp. | Humidity | Pressure | Rain* | Wind** | Luminosity | Snow |
|---|---|---|---|---|---|---|---|
| 1778100017 | 12.78° C | 74% | 1003.4 hPa | 0 mm | - | - | - |
| 1778099417 | 12.78° C | 74% | 1003.5 hPa | 0 mm | - | - | - |
| 1778098816 | 12.78° C | 74% | 1003.5 hPa | 0 mm | - | - | - |
| 1778098217 | 12.78° C | 76% | 1003.5 hPa | 0 mm | - | - | - |
| 1778097617 | 13.33° C | 78% | 1003.6 hPa | 0 mm | - | - | - |
| 1778097038 | 13.89° C | 79% | 1003.7 hPa | 0 mm | - | - | - |
| 1778096417 | 14.44° C | 76% | 1002.7 hPa | 0 mm | - | - | - |
| 1778095817 | 15° C | 72% | 1002.7 hPa | 0 mm | - | - | - |
| 1778095217 | 15° C | 69% | 1002.7 hPa | 0 mm | - | - | - |
| 1778094617 | 15° C | 67% | 1002.6 hPa | 0 mm | - | - | - |
| 1778094017 | 16.11° C | 65% | 1002.7 hPa | 0 mm | - | - | - |
| 1778093418 | 16.11° C | 64% | 1001.7 hPa | 0 mm | - | - | - |
| 1778092817 | 16.11° C | 64% | 1001.7 hPa | 0 mm | - | - | - |
| 1778092217 | 16.11° C | 64% | 1001.7 hPa | 0 mm | - | - | - |
| 1778091616 | 16.11° C | 63% | 1001.6 hPa | 0 mm | - | - | - |
| 1778091017 | 16.67° C | 61% | 1001.6 hPa | 0 mm | - | - | - |
| 1778090417 | 17.22° C | 58% | 1001.6 hPa | 0 mm | - | - | - |
| 1778089817 | 17.22° C | 56% | 1001.6 hPa | 0 mm | - | - | - |
| 1778089216 | 17.78° C | 55% | 1001.7 hPa | 0 mm | - | - | - |
| 1778088617 | 17.78° C | 54% | 1001.7 hPa | 0 mm | - | - | - |
| 1778088017 | 17.78° C | 53% | 1001.7 hPa | 0 mm | - | - | - |
| 1778087417 | 17.78° C | 53% | 1001.7 hPa | 0 mm | - | - | - |
| 1778086818 | 17.78° C | 52% | 1001.7 hPa | 0 mm | - | - | - |
| 1778086217 | 18.33° C | 50% | 1001.7 hPa | 0 mm | - | - | - |
| 1778085616 | 18.89° C | 48% | 1001.8 hPa | 0 mm | - | - | - |
* Rain latest hour (hover to see other rain measurements)
** Current wind speed in m/s (hover to see current wind gust speed)